Погода Кемь-Порт

Погода Кемь-Порт : погода сейчас, прогноз погоды и архив. Всё, что Вы хотите узнать о погоде Кемь-Порт!

Поиск расширенной информации на нашем сайте:

Другие новости

Новости СМИ2

Главная страница сайта

Новости сайта

02.10.2013

Напоминаем, что на нашем новом сайте вы можете получить высокодетализированные прогнозы погоды по пунктам России, СНГ и мира (включающие важные для авиации метеовеличины, такие как направление и скорость ветра, видимость, явления погоды, количество и форма облачности, нижняя и верхняя граница облачности), а также ознакомиться с разнообразными материалами по авиационной метеорологии и подборкой полезных ссылок на эту тему.

Сайт Метеоцентр.Азия посвящён разработке технологий оптимизации авиаметеорологического обслуживания, включая проектирование и перспективное создание нескольких автоматизированных авиаметеорологических систем:
- система выпуска высокодетальных прогностических карт явлений погоды для нижнего воздушного пространства по России и ближнему зарубежью;
- система верификации прогнозов TAF (выпускаемых синоптиками официальных АМСГ РФ и ближнего зарубежья) и AUTOTAF (выпускаемых сайтом Метеоцентр.Азия) - выявление ошибок, онлайн-сопоставление с фактической погодой METAR, автоматическое внесение коррективов в прогнозы при резком отклонении фактической погоды от прогноза, подсчёт оправдываемости прогнозов по элементам и в целом;
- система обработки, анализа и отображения авиаметеорологической информации для применения провайдерами метеорологической информации.


Погода Кемь-Порт - сегодня

Время (UTC), дата Ветер
(°,м/с) 
Видим.   Явления Облачность Т
(°С)
Тd
(°С)
f(%) Тe
(°С)
Pmin
(гПа)
dP
(гПа)
Po
(мм)
O2
(г/м3)
Тmin Tmax R s Состояние
почвы
21 23.06.17 010 (С) 20000 м    3/0 средняя 
[Ac trans]
+6.3 +3.3 81 +6  1003.3  0.3  752  296           
00 24.06.17 340 (С) 20000 м    4/4 600 м 
[Sc]
+5 +2.4 83 +6  1003.6  0.4  752  297           
03 24.06.17 020 (С) 20000 м    4/3 600 м верхняя 
[Sc|Ci fib]
+6.9 +2.1 71 +7  1003.9  0.3  752  295  +4         
06 24.06.17 080 (В) 20000 м    9/9 300 м 
[Sc]
+7.7 +2.7 71 +7  1004.2  0.2  752  294          влажная 
09 24.06.17 080 (В) 20000 м    9/9 300 м 
[Sc]
+7.7 +3.1 73 +7  1004.2  0.1  753  294           
12 24.06.17 080 (В) 20000 м    9/9 300 м 
[Sc]
+8.8 +3 67 +8  1004.1  0.1  752  293           
15 24.06.17 120 (ЮВ) 20000 м    6/6 300 м 
[Sc]
+8.4 +3 69 +7  1004.1  752  294           
18 24.06.17 110 (В) 20000 м    8/8 300 м 
[Sc]
+7.2 +2.7 73 +6  1003.7  -0.3  752  295    +9       
21 24.06.17 100 (В) 20000 м    9/9 300 м 
[Sc]
+7.5 +3.3 75 +7  1003.4  -0.3  752  294           
00 25.06.17 090 (В) 20000 м  {ливн. осадки}  10/10 300 м 
[Sc]
+7.5 +3.7 77 +6  1002.8  -0.7  751  294           
03 25.06.17 080 (В) 20000 м  в посл. час ливневой дождь  10/10 540 м 
[Sc]
+7 +5.1 88 +6  1002.1  -0.7  751  294  +7    0.3     
06 25.06.17 070 (В) 20000 м  {ливн. осадки}  9/3 600 м средняя 
[Sc|Ac lent]
+8.5 +5.5 81 +8  1001.4  -0.7  750  292  +7    0.3    влажная 
09 25.06.17 080 (В) 20000 м    8/0 средняя, верхняя 
[Ac trans|Ci fib]
+11.3 +6.6 73 +11  1000.3  -1  750  289           
12 25.06.17 090 (В) 4{10}  20000 м    9/4 600 м средняя 
[Sc|Ac As]
+10.6 +6.8 77 +10  999.4  -1  749  289           
15 25.06.17 130 (ЮВ) 20000 м    10/8 600 м средняя 
[Sc|Ac As]
+10.8 +7 77 +9  998.2  -1.1  748  289           
18 25.06.17 130 (ЮВ) 10 км  слаб. ливневой дождь  10/10 450 м кучево-дожд. 
[Cb cap]
+11.3 +7.8 79 +10  997.6  -0.6  748  288    +12.5  0.1     
21 25.06.17 120 (ЮВ) 4000 м  ливневой дождь  10/10 420 м кучево-дожд. 
[Cb cap]
+9.6 +8.8 95 +9  996.5  -1  747  289           
00 26.06.17 120 (ЮВ) 10 км  в посл. час ливневой дождь  10/10 450 м кучево-дожд. 
[Cb cap]
+9.4 +8.8 96 +8  994.8  -1.7  746  289           
03 26.06.17 120 (ЮВ) 4000 м  в посл. час туман  10/10 270 м 
[St]
+9.6 +9.1 97 +9  993.6  -1.3  745  288  +9       
06 26.06.17 130 (ЮВ) 10 км  {туман}  9/9 600 м 
[Sc]
+11.5 +10.6 94 +13  992.8  -0.7  744  286  +9      влажная 
09 26.06.17 170 (Ю) 4{10}  20000 м  в посл. час гроза  6/6 600 м 
[Cu Sc]
+16.9 +9.5 62 +18  992.2  -0.6  744  280           
12 26.06.17 120 (ЮВ) 20000 м  гроза, ливневой дождь  8/8 300 м кучево-дожд. 
[Cb cap]
+15 +9.6 70 +16  992.1  0.1  743  282           
15 26.06.17 120 (ЮВ) 20000 м  гроза, ливневой дождь  6/3 600 м верхняя 
[Cu Sc|Ci]
+16.2 +8.4 60 +16  991.8  -0.4  743  281      0.1     
18 26.06.17 150 (ЮВ) 2{10}  20000 м  {гроза}  8/4 600 м кучево-дожд., верхняя 
[Cb calv|Ci]
+12.8 +9.1 78 +13  991.8  743  284    +17.3  0.1     
21 26.06.17 180 (Ю) 20000 м    8/3 600 м верхняя 
[Sc|Ci fib]
+11.6 +9.4 86 +13  990.5  -1.3  742  285           
Время (UTC), дата Ветер
(°,м/с) 
Видим.   Явления Облачность Т
(°С)
Тd
(°С)
f(%) Тe
(°С)
Pmin
(гПа)
dP
(гПа)
Po
(мм)
O2
(г/м3)
Тmin Tmax R s Состояние
почвы

Для получения пояснительной информации подведите курсор к названию столбца.

ПОГОДА Кемь-Порт - архив

Всё, что Вы хотите узнать о погоде Кемь-Порт - удобно и подробно!

Выберите нужную дату (начиная с 1 января 2015* года) и нажмите кнопку "Найти".
Будут отображены архивные сводки погоды по пункту Кемь-Порт, начиная с указанной даты.


Отображать данные в формате CSV (для использования в таблицах Excel)


Внимание! Наш архив погоды предназначен исключительно для личного некоммерческого использования в познавательных целях. Если Вам необходимы официальные справки о состоянии погоды (для производственных, юридических, коммерческих и т.п. целей), обращайтесь в органы Росгидромета.

*Примечание: данная дата относится к архиву по метеостанциям СССР (Россия, СНГ, Балтия).
Архив по метеостанциям Зарубежной Европы и Азии (кроме Китая) хранится 10 дней, по другим регионам земного шара (Китай, Африка, Америка, Австралия, Океания) - 1 день.

Кемь-Порт - район местоположения метеостанции


Название, широта, долгота, высота метеостанции:
Кемь-Порт 64.98°ш. 34.80°д. 8 м над ур. моря [Российская Федерация]

Дополнительная информация

В oтличие oт бoльшинства пoгoдных сайтoв мы публикуем пoдрoбную метеoинфoрмацию в детальнoм прoфессиoнальнoм фoрмате.

Характеристики температуры и влажнoсти вoздуха измеряются на высoте 2 м в тени вдали oт зданий и деревьев.
Скoрoсть ветра измеряется на высoте 10 м (на урoвне рoста челoвека скoрoсть ветра ниже в 1.5-2 раза). Если метеoстанция нахoдится в гoрoде или в лесу, тo скoрoсть ветра занижена на 2-4 м/с пo сравнению с oткрытым местoм. Скoрoсть ветра над акватoриями крупных рек и oзёр, а также на вершинах хoлмoв на 2-5 м/с выше, чем в oбычных услoвиях.
Атмoсфернoе давление в разных тoчках местнoсти мoжет значительнo oтличаться oт давления на метеoстанции, в зависимoсти oт услoвий рельефа (при пoдъёме на 10 м давление пoнижается примернo на 1 мм рт.ст.).